[[[{"header":{"parameterUnit":"kt","parameterCategory":2,"dx":1,"dy":1,"la1":30.253999710083008,"la2":30.299108505249023,"lo1":-89.0895004272461,"lo2":-89.04439544677734,"nx":28,"ny":28,"refTime":"2022-10-17T21:00:00:Z","depth":0,"parameterNumber":1,"parameterNumberName":"U-component_of_WINDS"},"data":[-3.5183,-3.5451,-3.5431,-3.5728,-3.5761,-3.5962,-3.6027,-3.611,-3.6171,-3.6408,-3.6541,-3.6549,-3.6604,-3.6759,-3.6903,-3.6903,-3.697,-3.7077,-3.7062,-3.6592,-3.6526,-3.6464,-3.6401,-3.709,-3.709,-3.7555,-3.7559,-3.7563,-3.4838,-3.4873,-3.5023,-3.5157,-3.5286,-3.5169,-3.5266,-3.5383,-3.5566,-3.5643,-3.5772,-3.598,-3.6142,-3.616,-3.6313,-3.644,-3.6397,-3.6484,-3.648,-3.6491,-3.5985,-3.5919,-3.6516,-3.6516,-3.6516,-3.6515,-3.6515,-3.6515,-3.4206,-3.4367,-3.4437,-3.46,-3.4661,-3.4751,-3.4902,-3.4908,-3.5056,-3.5213,-3.516,-3.5367,-3.5442,-3.5617,-3.5671,-3.5833,-3.5735,-3.5826,-3.5851,-3.5877,-3.5911,-3.5254,-3.5857,-3.5855,-3.5854,-3.5852,-3.5851,0,-3.3741,-3.3714,-3.3857,-3.3995,-3.4113,-3.4218,-3.4312,-3.4404,-3.4341,-3.4466,-3.4646,-3.4748,-3.4947,-3.5117,-3.5255,-3.5294,-3.5194,-3.5178,-3.5242,-3.5278,-3.529,-3.5295,-3.4479,-3.5164,-3.5158,-3.5153,-3.515,-3.5148,-3.3111,-3.3299,-3.3361,-3.3465,-3.3511,-3.3679,-3.3775,-3.3704,-3.3811,-3.3916,-3.4063,-3.4228,-3.436,-3.4652,-3.4662,-3.4812,-3.4767,-3.5031,-3.479,-3.4812,-3.4782,-3.4776,-3.4797,-3.5084,-3.5092,-3.5099,-3.5104,0,-3.276,-3.2726,-3.3012,-3.3055,-3.3072,-3.3273,-3.3312,-3.3469,-3.3458,-3.3675,-3.3721,-3.3707,-3.3886,-3.3851,-3.4048,-3.4026,-3.4364,-3.4309,-3.4337,-3.4328,-3.4568,-3.455,-3.5336,-3.5438,-3.4713,-3.472,-3.4726,0,-3.2214,-3.2464,-3.2401,-3.2569,-3.2843,-3.2766,-3.3041,-3.3059,-3.3121,-3.3291,-3.3165,-3.3328,-3.3257,-3.3415,-3.3382,-3.365,-3.3685,-3.3687,-3.3678,-3.3705,-3.3706,-3.377,-3.3741,-3.3637,-3.3633,-3.3629,-3.3626,0,-3.1676,-3.1931,-3.2201,-3.2255,-3.2329,-3.2458,-3.2495,-3.2563,-3.266,-3.2777,-3.284,-3.2982,-3.3064,-3.3177,-3.3135,-3.2973,-3.3458,-3.3228,-3.3462,-3.3465,-3.3581,-3.3577,-3.4271,-3.3621,-3.362,-3.3619,-3.3617,0,-3.1234,-3.1352,-3.1746,-3.1805,-3.1876,-3.2054,-3.219,-3.2333,-3.2415,-3.2405,-3.2498,-3.2414,-3.264,-3.2414,-3.2726,-3.2528,-3.2616,-3.2636,-3.2652,-3.268,-3.2432,-3.284,-3.3496,-3.3568,-3.2692,-3.2684,-3.2677,0,-3.063,-3.1018,-3.0956,-3.1333,-3.1508,-3.1358,-3.1553,-3.1629,-3.1632,-3.1783,-3.1785,-3.1959,-3.1782,-3.1833,-3.199,-3.2003,-3.2259,-3.1965,-3.2194,-3.2204,-3.2186,-3.2786,-3.2899,-3.3353,-3.2578,-3.2588,-3.2596,0,-3.016,-3.0246,-3.0318,-3.0378,-3.0464,-3.061,-3.0833,-3.0987,-3.1092,-3.1188,-3.1379,-3.1617,-3.1496,-3.1581,-3.1529,-3.1695,-3.2083,-3.1544,-3.1545,-3.165,-3.2522,-3.2628,-3.2704,-3.2012,-3.2024,-3.2033,-3.2517,0,-2.9515,-2.9703,-2.9892,-3.0027,-3.0133,-3.0365,-3.0329,-3.0444,-3.0382,-3.0382,-3.0656,-3.0712,-3.0873,-3.0947,-3.089,-3.1279,-3.1212,-3.1081,-3.0868,-3.1258,-3.1418,-3.1482,-3.0633,-3.0626,-3.0621,-3.0616,0,0,-2.8951,-2.922,-2.9146,-2.936,-2.9447,-2.9289,-2.9542,-2.9607,-2.9746,-2.981,-2.9687,-3.0036,-3.0089,-3.0429,-3.0547,-3.0609,-3.0679,-3.0545,-3.1071,-3.1121,-3.1168,-3.1339,-3.1406,-3.0606,-3.0604,-3.0602,-3.0601,0,-2.871,-2.8758,-2.9007,-2.907,-2.9162,-2.9147,-2.9207,-2.9272,-2.9284,-2.955,-2.9423,-2.9583,-2.9864,-2.9939,-3.0013,-3.0498,-3.0399,-3.0548,-3.0825,-3.1016,-3.1074,-3.1125,-3.1305,-3.137,-3.0587,-3.0588,-3.0588,0,-2.8247,-2.8292,-2.8407,-2.8591,-2.8651,-2.8835,-2.8598,-2.8802,-2.8939,-2.8763,-2.9032,-2.906,-2.9155,-2.9478,-2.9621,-2.9516,-3.0146,-2.9939,-2.9973,-2.9991,-3.0175,-3.0245,-3.0307,-2.9491,-2.9487,-2.9483,0,0,-2.8045,-2.8218,-2.8248,-2.8537,-2.8583,-2.8566,-2.8659,-2.8609,-2.8695,-2.8731,-2.8766,-2.8857,-2.9019,-2.9128,-2.9279,-2.9637,-2.9655,-2.9805,-2.9857,-2.9899,-2.9941,-3.0137,-3.0205,-2.947,-2.9469,-2.9469,0,0,-2.7949,-2.7994,-2.7916,-2.8246,-2.8331,-2.8383,-2.8563,-2.847,-2.8602,-2.8572,-2.85,-2.8521,-2.8821,-2.8855,-2.8672,-2.9204,-2.8992,-2.9035,-2.9173,-2.9238,-2.9289,-2.9279,-2.8445,0,0,0,0,0,-2.7686,-2.7987,-2.7916,-2.7966,-2.8201,-2.8421,-2.8451,-2.8397,-2.8247,-2.8391,-2.8405,-2.8288,-2.8741,-2.8578,-2.863,-2.8838,-2.929,-2.9322,-2.9352,-2.9614,-2.9682,-2.974,0,0,0,0,0,0,-2.7705,-2.7766,-2.7908,-2.7973,-2.8025,-2.841,-2.8146,-2.8139,-2.8231,-2.8204,-2.8289,-2.8291,-2.8251,-2.8547,-2.8596,-2.8794,-2.8428,-2.9303,-2.933,-2.9354,-2.9638,-2.9693,-2.9741,0,0,0,0,0,-2.772,-2.7769,-2.816,-2.7968,-2.8014,-2.8012,-2.8134,-2.8126,-2.8197,-2.822,-2.8218,-2.8147,-2.8258,-2.8295,-2.8576,-2.8774,-2.8395,-2.8413,-2.932,-2.9342,-2.9361,-2.9665,0,0,0,0,0,0,-2.7731,-2.7765,-2.8167,-2.8179,-2.785,-2.799,-2.8009,-2.8116,-2.8205,-2.8206,-2.8073,-2.8052,-2.8267,-2.8293,-2.8323,-2.877,-2.8367,-2.8386,-2.8397,-2.9337,-2.9353,-2.9368,0,0,0,0,0,0,-2.7738,-2.7776,-2.8174,-2.8028,-2.8022,-2.797,-2.7987,-2.8218,-2.8208,-2.8053,-2.8037,-2.8063,-2.8224,-2.8295,-2.8316,-2.8679,-2.8346,-2.8364,-2.8376,-2.8384,-2.935,-2.9363,0,0,0,0,0,0,-2.7753,-2.7786,-2.8024,-2.8021,-2.8015,-2.8144,-2.8172,-2.8417,-2.808,-2.8051,-2.8048,-2.8034,-2.8229,-2.8249,-2.8313,-2.8667,-2.8676,-2.8347,-2.8359,-2.8367,-2.8373,0,0,0,0,0,0,0,-2.7765,-2.7559,-2.8097,-2.8014,-2.8009,-2.8289,-2.8292,-2.8296,-2.8077,-2.8064,-2.8052,-2.804,-2.8245,-2.8264,-2.8284,-2.8657,0,0,-2.8345,-2.8353,0,0,0,0,0,0,0,0,-2.7543,-2.7555,-2.8097,-2.81,-2.8102,-2.829,-2.8292,-2.8295,-2.8075,-2.8064,-2.8054,-2.8045,-2.825,-2.8266,-2.8282,0,0,0,0,0,0,0,0,0,0,0,0,0,0,0,-2.8097,-2.8099,0,-2.829,-2.8292,-2.8294,-2.8073,-2.8065,-2.8057,-2.8049,-2.8255,-2.8268,-2.8281,0,0,0,0,0,0,0,0,0,0,0,0,0,0,0,0,0,0,0,0,0,0,0,0,0,0,0,0,0,0,0,0,0,0,0,0,0,0,0,0,0,0,0,0,0,0,0,0,0,0,0,0,0,0,0,0,0,0,0,0,0,0,0,0,0,0,0,0,0]}],[{"header":{"parameterUnit":"kt","parameterCategory":2,"dx":1,"dy":1,"la1":30.253999710083008,"la2":30.299108505249023,"lo1":-89.0895004272461,"lo2":-89.04439544677734,"nx":28,"ny":28,"refTime":"2022-10-17T21:00:00:Z","depth":0,"parameterNumber":2,"parameterNumberName":"V-component_of_WINDS"},"data":[-13.319,-13.3481,-13.3495,-13.3831,-13.3899,-13.4129,-13.4215,-13.4326,-13.4416,-13.4687,-13.4844,-13.4883,-13.4973,-13.5159,-13.5326,-13.5338,-13.5406,-13.55,-13.5497,-13.5074,-13.5015,-13.496,-13.4892,-13.5516,-13.5516,-13.5933,-13.5937,-13.594,-13.2874,-13.2946,-13.313,-13.3315,-13.3471,-13.3389,-13.3527,-13.3661,-13.3867,-13.3981,-13.4137,-13.4375,-13.4563,-13.4622,-13.4802,-13.4932,-13.4901,-13.498,-13.4968,-13.4983,-13.4532,-13.446,-13.5002,-13.5002,-13.5002,-13.5002,-13.5002,-13.5001,-13.2302,-13.2477,-13.2598,-13.2796,-13.2893,-13.3016,-13.3182,-13.3228,-13.3404,-13.3599,-13.3577,-13.3809,-13.3921,-13.4143,-13.4219,-13.4396,-13.4309,-13.4397,-13.4419,-13.444,-13.4463,-13.3855,-13.4427,-13.4426,-13.4424,-13.4423,-13.4422,0,-13.1886,-13.1886,-13.2063,-13.2244,-13.2389,-13.253,-13.2659,-13.2763,-13.276,-13.2905,-13.3115,-13.3236,-13.3475,-13.3669,-13.384,-13.39,-13.3823,-13.3818,-13.3878,-13.3891,-13.388,-13.3885,-13.3146,-13.38,-13.3795,-13.3791,-13.3788,-13.3786,-13.1306,-13.151,-13.1643,-13.1765,-13.184,-13.2038,-13.2156,-13.214,-13.2266,-13.242,-13.2573,-13.2769,-13.2925,-13.3255,-13.3299,-13.3475,-13.3439,-13.3687,-13.3464,-13.3469,-13.3439,-13.3426,-13.3444,-13.373,-13.3737,-13.3743,-13.3748,0,-13.0978,-13.0999,-13.1318,-13.1429,-13.1462,-13.1675,-13.1766,-13.1938,-13.1962,-13.2201,-13.2256,-13.2293,-13.2496,-13.2502,-13.2735,-13.273,-13.307,-13.3032,-13.303,-13.3022,-13.3242,-13.322,-13.3964,-13.4058,-13.3416,-13.3422,-13.3427,0,-13.049,-13.0758,-13.0772,-13.0957,-13.1252,-13.1229,-13.152,-13.157,-13.167,-13.1858,-13.1775,-13.1952,-13.1931,-13.2108,-13.2102,-13.2381,-13.2426,-13.2437,-13.2432,-13.2444,-13.2442,-13.2506,-13.2475,-13.2417,-13.2413,-13.2409,-13.2406,0,-12.9971,-13.0294,-13.0594,-13.067,-13.0814,-13.0954,-13.102,-13.1131,-13.1247,-13.1398,-13.1472,-13.1649,-13.1745,-13.1881,-13.1872,-13.172,-13.2214,-13.2004,-13.2226,-13.2226,-13.2333,-13.2326,-13.2986,-13.2402,-13.2401,-13.2399,-13.2398,0,-12.9579,-12.9739,-13.0172,-13.0288,-13.0373,-13.057,-13.0744,-13.0915,-13.1037,-13.1048,-13.1166,-13.111,-13.1358,-13.1148,-13.1486,-13.1291,-13.1389,-13.1423,-13.1439,-13.1459,-13.1223,-13.1591,-13.2222,-13.2286,-13.148,-13.1472,-13.1465,0,-12.8977,-12.9421,-12.9406,-12.9817,-13.0022,-12.9915,-13.0133,-13.0245,-13.0277,-13.0452,-13.0484,-13.0684,-13.0529,-13.0591,-13.0759,-13.0799,-13.1053,-13.0765,-13.1009,-13.1018,-13.0977,-13.1559,-13.165,-13.2084,-13.1368,-13.1378,-13.1385,0,-12.8513,-12.869,-12.8765,-12.885,-12.8999,-12.917,-12.9421,-12.9615,-12.9732,-12.9869,-13.0075,-13.0356,-13.0249,-13.0354,-13.0327,-13.0501,-13.088,-13.0362,-13.0365,-13.0453,-13.132,-13.1405,-13.1479,-13.0822,-13.0834,-13.0844,-13.1308,0,-12.791,-12.8136,-12.834,-12.8534,-12.8668,-12.8927,-12.8937,-12.9075,-12.9036,-12.9064,-12.9369,-12.9462,-12.9657,-12.9742,-12.9706,-13.0105,-13.0038,-12.9922,-12.9716,-13.0099,-13.0251,-13.0314,-12.9487,-12.9481,-12.9476,-12.9472,0,0,-12.7327,-12.7651,-12.7627,-12.7872,-12.7983,-12.7869,-12.8144,-12.8238,-12.8432,-12.8509,-12.8395,-12.8805,-12.8886,-12.9254,-12.9374,-12.9455,-12.9524,-12.9391,-12.9917,-12.9967,-13.0013,-13.0176,-13.0241,-12.9463,-12.9461,-12.946,-12.9458,0,-12.7109,-12.7202,-12.7477,-12.7575,-12.7718,-12.7736,-12.7802,-12.7923,-12.7953,-12.8254,-12.8152,-12.8335,-12.8666,-12.8763,-12.8856,-12.9348,-12.9258,-12.9407,-12.9668,-12.9866,-12.9922,-12.9972,-13.0144,-13.0207,-12.9446,-12.9446,-12.9447,0,-12.6651,-12.6743,-12.6878,-12.713,-12.7222,-12.7436,-12.7224,-12.746,-12.7617,-12.7476,-12.7776,-12.7829,-12.7961,-12.831,-12.8467,-12.8366,-12.9015,-12.8813,-12.8845,-12.8862,-12.9053,-12.9121,-12.9181,-12.8385,-12.8381,-12.8378,0,0,-12.646,-12.6671,-12.6763,-12.7083,-12.7149,-12.7179,-12.7294,-12.7268,-12.7392,-12.7442,-12.7508,-12.7629,-12.7819,-12.7945,-12.8124,-12.8508,-12.853,-12.8682,-12.8732,-12.8773,-12.8812,-12.9014,-12.9081,-12.8364,-12.8364,-12.8363,0,0,-12.6368,-12.6488,-12.6429,-12.6803,-12.6926,-12.7035,-12.7228,-12.7156,-12.732,-12.7291,-12.7254,-12.7285,-12.7611,-12.7667,-12.7478,-12.805,-12.7846,-12.7891,-12.8002,-12.8065,-12.8114,-12.8093,-12.727,0,0,0,0,0,-12.615,-12.6473,-12.6418,-12.6482,-12.6799,-12.7066,-12.7106,-12.7085,-12.6941,-12.7094,-12.7137,-12.7035,-12.7557,-12.7389,-12.7451,-12.7661,-12.8183,-12.8215,-12.8245,-12.8478,-12.8544,-12.86,0,0,0,0,0,0,-12.6175,-12.6254,-12.6409,-12.6533,-12.6604,-12.7054,-12.6805,-12.6808,-12.6924,-12.69,-12.703,-12.7039,-12.7024,-12.7356,-12.7412,-12.7612,-12.7251,-12.8196,-12.8223,-12.8247,-12.85,-12.8555,-12.8601,0,0,0,0,0,-12.6195,-12.6258,-12.6773,-12.6528,-12.659,-12.664,-12.6793,-12.6793,-12.6882,-12.6951,-12.6956,-12.6856,-12.7031,-12.7076,-12.7389,-12.7587,-12.7212,-12.7233,-12.8213,-12.8235,-12.8254,-12.8527,0,0,0,0,0,0,-12.621,-12.6259,-12.6784,-12.6802,-12.6405,-12.6614,-12.6646,-12.6781,-12.6924,-12.6933,-12.6773,-12.6753,-12.7039,-12.7073,-12.7109,-12.758,-12.718,-12.7201,-12.7215,-12.823,-12.8246,-12.8261,0,0,0,0,0,0,-12.6225,-12.6276,-12.6794,-12.664,-12.664,-12.659,-12.6619,-12.6881,-12.6927,-12.6737,-12.6725,-12.6762,-12.6983,-12.7073,-12.71,-12.751,-12.7155,-12.7176,-12.719,-12.7199,-12.8243,-12.8256,0,0,0,0,0,0,-12.6246,-12.6289,-12.6635,-12.6635,-12.6634,-12.6832,-12.682,-12.7145,-12.6799,-12.6733,-12.6767,-12.6753,-12.6986,-12.7013,-12.7094,-12.7494,-12.7506,-12.7156,-12.717,-12.718,-12.7187,0,0,0,0,0,0,0,-12.6262,-12.5979,-12.668,-12.6631,-12.663,-12.6967,-12.6972,-12.6976,-12.6796,-12.6783,-12.6771,-12.6759,-12.7038,-12.7061,-12.7083,-12.748,0,0,-12.7154,-12.7164,0,0,0,0,0,0,0,0,-12.596,-12.5974,-12.668,-12.6684,-12.6688,-12.6968,-12.6971,-12.6975,-12.6794,-12.6784,-12.6773,-12.6764,-12.7044,-12.7062,-12.7081,0,0,0,0,0,0,0,0,0,0,0,0,0,0,0,-12.6681,-12.6684,0,-12.6968,-12.6971,-12.6974,-12.6793,-12.6784,-12.6776,-12.6768,-12.7049,-12.7064,-12.7079,0,0,0,0,0,0,0,0,0,0,0,0,0,0,0,0,0,0,0,0,0,0,0,0,0,0,0,0,0,0,0,0,0,0,0,0,0,0,0,0,0,0,0,0,0,0,0,0,0,0,0,0,0,0,0,0,0,0,0,0,0,0,0,0,0,0,0,0,0]}]]]